Погода в Ключи

Погода в Ключи : погода сейчас, прогноз погоды и архив. Всё, что Вы хотите узнать о погоде в Ключи!

Хотите узнать прогноз погоды в Ключи? Тогда Вам сюда: Погода в Ключи

Поиск расширенной информации на нашем сайте:

Другие новости

Новости СМИ2

Главная страница сайта

Новости сайта

03.07.2017

Напоминаем, что на нашем специализированном сайте Метеоцентр.Азия вы можете получить высокодетализированные автоматические прогнозы погоды по пунктам России, СНГ и мира в авиационном формате (включающие направление и скорость ветра, видимость, явления погоды, количество и форму облачности, нижнюю и верхнюю границу облачности).


Погода в Ключи - сегодня

Время (UTC), дата Ветер
(°,м/с) 
Видим.   Явления Облачность Т
(°С)
Тd
(°С)
f(%) Тe
(°С)
Pmin
(гПа)
dP
(гПа)
Po
(мм)
O2
(г/м3)
Тmin Tmax R s Состояние
почвы
09 23.05.18 280 (З) 4{10}  20000 м    9/5 1000 м средняя, верхняя 
[Sc|Ac trans|Ci fib]
+5.5 -0.7 64 +4  1003.4  1.8  750  296    +7  0.0     
12 23.05.18 260 (З) 20000 м    9/3 1000 м средняя 
[Sc|Ac trans]
+3 -1 75 +2  1004.4  751  299           
15 23.05.18 230 (ЮЗ) 20000 м    9/3 1000 м средняя 
[Sc|Ac trans]
+1.5 -0.7 85 +1  1005.5  1.1  751  301           
18 23.05.18 270 (З) 20000 м    9/3 1000 м средняя, верхняя 
[Sc|Ac trans|Ci fib]
+1.6 -0.3 87 +1  1006.7  1.1  752  301           
00 24.05.18 070 (В) 20000 м    3/1 1000 м средняя, верхняя 
[Sc|Ac trans|Ci fib]
+10.7 +0.2 48 +11  1007.6  0.2  753  292           
03 24.05.18 070 (В) 20000 м    4/3 1000 м средняя, верхняя 
[Sc|Ac trans|Ci fib]
+13.1 -1 38 +13  1007.5  753  290           
06 24.05.18 080 (В) 20000 м    3/1 1000 м средняя 
[Sc|Ac trans]
+13.2 -1.4 36 +13  1008.3  0.8  754  290           
12 24.05.18 110 (В) 20000 м    ясно 
+5.4 -0.5 66 +4  1011.6  1.4  756  299           
15 24.05.18 130 (ЮВ) 20000 м    ясно 
+2.3 -1.2 78 +1  1012.5  0.8  757  302           
18 24.05.18 140 (ЮВ) 20000 м    3/0 верхняя 
[Ci fib]
+2.3 -1.1 78 +2  1012.9  0.4  757  303           
00 25.05.18 070 (В) 20000 м    5/0 средняя, верхняя 
[Ac trans|Ci fib]
+13.5 +0.3 40 +14  1012.6  -0.5  757  291           
03 25.05.18 070 (В) 20000 м    5/0 средняя, верхняя 
[Ac trans|Ci fib]
+16.2 -1.5 30 +17  1011.6  -0.9  756  288           
06 25.05.18 080 (В) 20000 м  пыльный позёмок  9/0 средняя, верхняя 
[Ac trans|Ci fib]
+14.4 -1.1 34 +14  1011.3  -0.4  756  289           
09 25.05.18 090 (В) 20000 м    9/3 1000 м средняя, верхняя 
[Sc|Ac trans|Ci fib]
+10.1 +0.5 51 +10  1012.6  1.3  757  294    +16.7       
12 25.05.18 130 (ЮВ) 20000 м  пыльная буря  9/3 1000 м средняя 
[Sc|Ac trans]
+6.9 +0.3 63 +6  1013.4  0.7  757  298           
15 25.05.18 150 (ЮВ) 20000 м    9/3 1000 м средняя 
[Sc|Ac trans]
+3.5 -0.4 76 +4  1014.1  0.7  758  302           
18 25.05.18 100 (В) 20000 м    9/1 1000 м средняя, верхняя 
[Sc|Ac trans|Ci fib]
+3 -0.2 79 +2  1014.3  0.2  758  302           
00 26.05.18 010 (С) 20000 м    9/1 1000 м верхняя 
[Sc|Ci fib]
+12.3 +0.4 44 +13  1013.5  -1.2  758  292           
03 26.05.18 100 (В) 20000 м    9/3 1000 м средняя, верхняя 
[Sc|Ac trans|Ci fib]
+15.3 +1.5 39 +15  1012.2  -1.3  757  288           
06 26.05.18 080 (В) 20000 м  пыльный позёмок  9/5 1000 м средняя, верхняя 
[Cu Sc|Ac trans|Cc]
+13.6 +2 45 +13  1011.4  -0.8  756  290           
09 26.05.18 100 (В) 20000 м  пыльный позёмок  9/1 1000 м средняя, верхняя 
[Sc|Ac trans|Ci fib]
+10.3 +0.4 50 +9  1011.8  0.4  756  294    +16.1       
12 26.05.18 120 (ЮВ) 20000 м  пыльный позёмок  9/5 1000 м средняя 
[Sc|Ac trans]
+6.3 +0.6 67 +5  1012.5  0.7  757  298           
15 26.05.18 110 (В) 20000 м    9/5 1000 м средняя 
[Sc|Ac trans]
+3.9 +0.4 78 +3  1011.4  -1.1  756  300           
18 26.05.18 130 (ЮВ) 20000 м    10/3 1000 м средняя, верхняя 
[Sc|Ac trans|Ci fib]
+3.7 +0.9 82 +3  1010.6  -0.8  755  300           
21 26.05.18 110 (В) 4000 м  слаб. ливневой дождь  10/10 360 м кучево-дожд. 
[Cb cap]
+4.7 +2.1 83 +4  1009.5  -1.1  754  299  +3.1    0.0    влажная 
Время (UTC), дата Ветер
(°,м/с) 
Видим.   Явления Облачность Т
(°С)
Тd
(°С)
f(%) Тe
(°С)
Pmin
(гПа)
dP
(гПа)
Po
(мм)
O2
(г/м3)
Тmin Tmax R s Состояние
почвы

Для получения пояснительной информации подведите курсор к названию столбца.

ПОГОДА в Ключи - архив

Всё, что Вы хотите узнать о погоде в Ключи - удобно и подробно!

Выберите нужную дату (начиная с 1 января 2015* года) и нажмите кнопку "Найти".
Будут отображены архивные сводки погоды по пункту Ключи, начиная с указанной даты.


Отображать данные в формате CSV (для использования в таблицах Excel)


Внимание! Наш архив погоды предназначен исключительно для личного некоммерческого использования в познавательных целях. Если Вам необходимы официальные справки о состоянии погоды (для производственных, юридических, коммерческих и т.п. целей), обращайтесь в органы Росгидромета.

*Примечание: данная дата относится к архиву по метеостанциям СССР (Россия, СНГ, Балтия).
Архив по метеостанциям Зарубежной Европы и Азии (кроме Китая) хранится 10 дней, по другим регионам земного шара (Китай, Африка, Америка, Австралия, Океания) - 1 день.

Ключи - район местоположения метеостанции


Название, широта, долгота, высота метеостанции:
Ключи 56.3°ш. 160.8°д. 29 м над ур. моря [Российская Федерация]

Дополнительная информация

В oтличие oт бoльшинства пoгoдных сайтoв мы публикуем пoдрoбную метеoинфoрмацию в детальнoм прoфессиoнальнoм фoрмате.

Характеристики температуры и влажнoсти вoздуха измеряются на высoте 2 м в тени вдали oт зданий и деревьев.
Скoрoсть ветра измеряется на высoте 10 м (на урoвне рoста челoвека скoрoсть ветра ниже в 1.5-2 раза). Если метеoстанция нахoдится в гoрoде или в лесу, тo скoрoсть ветра занижена на 2-4 м/с пo сравнению с oткрытым местoм. Скoрoсть ветра над акватoриями крупных рек и oзёр, а также на вершинах хoлмoв на 2-5 м/с выше, чем в oбычных услoвиях.
Атмoсфернoе давление в разных тoчках местнoсти мoжет значительнo oтличаться oт давления на метеoстанции, в зависимoсти oт услoвий рельефа (при пoдъёме на 10 м давление пoнижается примернo на 1 мм рт.ст.).